ATLAS 5 CENTAUR DEB, 44678

Orbit data source: Space-Track

ATLAS 5 CENTAUR DEB, 44678 is space debris in HEO originally from a launch on Wed, 17 Oct 2018 UTC launched from the Air Force Eastern Test Range (AFETR). Debris objects in space refer to the collection of defunct objects orbiting the Earth. Examples of debris include non-operational satellites, rocket bodies, and fragments generated from explosions, collisions, or faulty payload assembly.

Loading next visibility...
Identifier
44678, 2018-079AQ
Orbit
HEO
Country
Flag of USUS
Related business
Flag of USUnited Launch Alliance/Lockheed Martin (US)
Manufacturer
ULA Decatur
Mission
Spacecraft
Bus & Motor
Unknown
Mass
Unknown
Launch date (UTC)
2018-10-17 (7 years ago)
Launch vehicle
Unknown
Launch site
Air Force Eastern Test Range (AFETR)
Object type
Payload
Rocket body
Debris
Shape & HBR
Unknown shape, 1.1 m
Radar Cross Section
RCS unknown

Expand to show TLE details & history
Last TLE update: 2 days ago

TLE from 2 days ago
0 ATLAS 5 CENTAUR DEB
1 44678U 18079AQ  25309.03435175 -.00000055  00000-0  00000-0 0  9992
2 44678  13.1273  53.9893 4625650 276.1692  34.9855  1.82230840 46985
Epoch: 2025-11-05T00:49Z
TLE epoch observation values (Epoch: 2025-11-05T00:49:27.991Z)
Latitude
-0.00001°
Longitude
-2.98739°
Altitude
14,820.277 km
Speed
4.851 km/s
True Right ascension
03h 35m 34s
True Declination
0° 00' 00"
Sunlit
Object was in daylight at epoch
Visualization orbit readout
Latitude
Unknown
Longitude
Unknown
Altitude
Unknown
Speed
Unknown
Apparent Right ascension
Unknown
Apparent Declination
Unknown
Sunlit
N/A
Visualization observer readout
Local Sidereal Time
03:47:13
Azimuth
Unknown
Elevation
Unknown
Doppler factor
Unknown
Orbital elements
Apogee altitude
35,034.634 km
Perigee altitude
8,839.424 km
Semi-major axis
28,315.166 km
Eccentricity
0.46257
Inclination
13.1273°
RAAN
53.9893°
Arg. of periapsis
276.1692°
True anomaly
84.03742°
Mean anomaly
34.9855°
Eccentric anomaly
57.28411°
Mean motion
0.45553 °/min
Orbital period
790.29 mins
BSTAR
0
Loading maneuver chart data...
Computing Atmospheric mass density...

Documentation

Showing up to 5 results
|